QPF
0.00 0.00 0.00 0.00 0.00 0.00 0.01 0.01 0.01 0.02 0.02 0.02 0.02 0.01 0.01 0.01 0.01 0.02 0.01 0.01 0.02 0.02 0.05 0.08 0.12 0.15 0.18 0.23 0.27 0.28 0.28 0.27 0.25 0.25 0.22 0.20 0.16 0.09 0.04 0.03 0.01 0.01 0.00
0.00 0.00 0.00 0.00 0.00 0.00 0.01 0.01 0.01 0.02 0.02 0.02 0.03 0.03 0.03 0.02 0.02 0.02 0.02 0.01 0.02 0.02 0.04 0.05 0.08 0.11 0.15 0.20 0.25 0.29 0.29 0.30 0.29 0.27 0.29 0.30 0.26 0.17 0.09 0.06 0.03 0.02 0.00
0.00 0.00 0.00 0.00 0.01 0.01 0.01 0.01 0.02 0.03 0.04 0.04 0.04 0.05 0.04 0.03 0.04 0.04 0.03 0.02 0.01 0.02 0.03 0.05 0.07 0.08 0.09 0.13 0.19 0.26 0.30 0.29 0.28 0.27 0.27 0.27 0.24 0.18 0.13 0.08 0.04 0.02 0.01
0.00 0.00 0.00 0.01 0.01 0.02 0.02 0.03 0.03 0.04 0.06 0.06 0.06 0.06 0.06 0.05 0.05 0.05 0.05 0.04 0.03 0.02 0.02 0.04 0.07 0.09 0.09 0.09 0.12 0.17 0.23 0.28 0.29 0.26 0.25 0.26 0.23 0.21 0.16 0.10 0.06 0.03 0.01
0.00 0.01 0.01 0.01 0.02 0.02 0.02 0.03 0.04 0.05 0.05 0.07 0.09 0.09 0.09 0.08 0.05 0.05 0.07 0.06 0.06 0.05 0.04 0.04 0.04 0.07 0.10 0.10 0.09 0.10 0.15 0.21 0.26 0.27 0.26 0.23 0.21 0.19 0.17 0.12 0.08 0.05 0.02
0.01 0.01 0.02 0.02 0.03 0.03 0.04 0.05 0.06 0.08 0.08 0.09 0.11 0.11 0.11 0.06 0.05 0.06 0.07 0.07 0.09 0.10 0.07 0.06 0.04 0.04 0.05 0.06 0.06 0.08 0.11 0.14 0.19 0.23 0.28 0.25 0.19 0.19 0.20 0.17 0.12 0.06 0.02
0.02 0.02 0.03 0.03 0.03 0.04 0.04 0.05 0.07 0.10 0.10 0.11 0.11 0.12 0.12 0.10 0.09 0.07 0.05 0.06 0.08 0.10 0.11 0.11 0.04 0.01 0.03 0.04 0.04 0.04 0.05 0.08 0.12 0.15 0.20 0.23 0.22 0.19 0.19 0.16 0.13 0.09 0.04
0.02 0.02 0.02 0.03 0.03 0.04 0.05 0.07 0.10 0.12 0.12 0.11 0.11 0.12 0.13 0.12 0.10 0.07 0.05 0.04 0.06 0.08 0.11 0.11 0.08 0.06 0.04 0.05 0.06 0.05 0.04 0.04 0.04 0.06 0.10 0.14 0.19 0.22 0.21 0.18 0.14 0.12 0.06
0.02 0.02 0.02 0.03 0.04 0.05 0.06 0.09 0.12 0.12 0.12 0.12 0.12 0.12 0.13 0.13 0.10 0.07 0.05 0.06 0.06 0.06 0.08 0.08 0.09 0.08 0.06 0.02 0.04 0.07 0.07 0.06 0.03 0.03 0.05 0.08 0.12 0.14 0.19 0.21 0.16 0.11 0.05
0.02 0.02 0.02 0.04 0.05 0.06 0.09 0.11 0.12 0.12 0.13 0.13 0.13 0.13 0.14 0.14 0.12 0.06 0.04 0.06 0.08 0.09 0.11 0.12 0.08 0.08 0.06 0.02 0.02 0.05 0.06 0.07 0.07 0.05 0.04 0.04 0.07 0.09 0.09 0.14 0.12 0.09 0.04
0.01 0.02 0.02 0.05 0.07 0.08 0.11 0.12 0.12 0.13 0.14 0.15 0.15 0.15 0.15 0.14 0.12 0.05 0.03 0.05 0.09 0.13 0.13 0.13 0.11 0.06 0.02 0.01 0.02 0.04 0.05 0.07 0.10 0.10 0.08 0.08 0.08 0.09 0.08 0.09 0.11 0.08 0.05
0.02 0.02 0.03 0.05 0.06 0.06 0.10 0.11 0.13 0.15 0.15 0.15 0.16 0.16 0.16 0.14 0.10 0.06 0.02 0.02 0.05 0.14 0.16 0.16 0.13 0.07 0.02 0.01 0.00 0.01 0.01 0.02 0.06 0.09 0.10 0.10 0.09 0.08 0.08 0.08 0.09 0.09 0.07
0.02 0.03 0.04 0.05 0.08 0.11 0.13 0.13 0.14 0.16 0.17 0.16 0.18 0.18 0.18 0.18 0.13 0.04 0.02 0.01 0.02 0.07 0.14 0.16 0.11 0.05 0.03 0.01 0.00 0.00 0.01 0.02 0.04 0.07 0.09 0.09 0.10 0.10 0.10 0.10 0.09 0.08 0.08
0.04 0.04 0.04 0.06 0.09 0.12 0.15 0.16 0.16 0.16 0.15 0.16 0.18 0.19 0.19 0.19 0.18 0.11 0.05 0.02 0.01 0.02 0.07 0.07 0.04 0.03 0.01 0.01 0.01 0.00 0.01 0.02 0.04 0.07 0.10 0.11 0.12 0.13 0.12 0.10 0.09 0.08 0.07
0.04 0.03 0.05 0.07 0.11 0.13 0.15 0.15 0.10 0.10 0.06 0.06 0.09 0.14 0.16 0.16 0.13 0.09 0.11 0.11 0.08 0.06 0.09 0.12 0.09 0.06 0.03 0.03 0.04 0.03 0.03 0.03 0.05 0.09 0.12 0.13 0.13 0.15 0.14 0.10 0.08 0.07 0.06
0.04 0.04 0.06 0.07 0.11 0.13 0.15 0.14 0.08 0.03 0.01 0.00 0.01 0.02 0.05 0.05 0.02 0.01 0.02 0.04 0.04 0.04 0.07 0.14 0.15 0.13 0.10 0.08 0.08 0.07 0.07 0.07 0.08 0.13 0.15 0.15 0.15 0.14 0.14 0.12 0.08 0.07 0.07
0.05 0.05 0.06 0.08 0.11 0.13 0.13 0.15 0.15 0.09 0.03 0.00 0.00 0.00 0.01 0.01 0.01 0.01 0.01 0.01 0.01 0.01 0.04 0.13 0.17 0.16 0.14 0.13 0.11 0.10 0.09 0.10 0.13 0.16 0.18 0.20 0.19 0.16 0.14 0.13 0.10 0.08 0.08
0.04 0.04 0.05 0.08 0.11 0.12 0.12 0.12 0.13 0.14 0.11 0.05 0.01 0.00 0.01 0.01 0.01 0.01 0.01 0.01 0.02 0.02 0.06 0.13 0.16 0.16 0.14 0.12 0.11 0.12 0.12 0.13 0.15 0.19 0.21 0.23 0.22 0.17 0.13 0.13 0.11 0.09 0.08
0.04 0.04 0.04 0.07 0.09 0.10 0.10 0.10 0.10 0.10 0.09 0.07 0.04 0.02 0.01 0.01 0.01 0.01 0.02 0.04 0.09 0.09 0.11 0.14 0.16 0.14 0.14 0.12 0.13 0.15 0.15 0.14 0.15 0.21 0.24 0.22 0.21 0.17 0.13 0.12 0.11 0.10 0.09
0.04 0.03 0.02 0.05 0.07 0.08 0.08 0.09 0.10 0.11 0.10 0.08 0.06 0.04 0.02 0.03 0.04 0.04 0.04 0.08 0.14 0.16 0.15 0.15 0.13 0.11 0.11 0.12 0.14 0.16 0.17 0.18 0.19 0.23 0.26 0.22 0.18 0.15 0.12 0.11 0.11 0.08 0.07
0.03 0.04 0.03 0.04 0.06 0.06 0.07 0.09 0.10 0.11 0.11 0.09 0.07 0.04 0.02 0.05 0.09 0.10 0.10 0.12 0.14 0.14 0.12 0.11 0.10 0.10 0.10 0.12 0.13 0.17 0.20 0.22 0.22 0.23 0.25 0.22 0.18 0.15 0.12 0.12 0.11 0.08 0.06
0.03 0.04 0.04 0.04 0.04 0.04 0.05 0.08 0.09 0.09 0.09 0.09 0.08 0.04 0.02 0.05 0.08 0.09 0.09 0.09 0.09 0.10 0.09 0.09 0.10 0.11 0.11 0.12 0.13 0.16 0.21 0.23 0.23 0.23 0.22 0.20 0.17 0.15 0.13 0.12 0.10 0.08 0.06
0.03 0.04 0.04 0.04 0.03 0.03 0.05 0.07 0.06 0.06 0.07 0.08 0.08 0.07 0.05 0.06 0.07 0.07 0.07 0.07 0.08 0.09 0.09 0.09 0.10 0.11 0.13 0.14 0.15 0.16 0.18 0.18 0.19 0.19 0.19 0.18 0.16 0.14 0.12 0.11 0.08 0.07 0.05
0.03 0.04 0.04 0.03 0.03 0.03 0.04 0.05 0.04 0.04 0.05 0.06 0.05 0.05 0.06 0.07 0.06 0.06 0.07 0.07 0.08 0.08 0.07 0.06 0.07 0.10 0.12 0.12 0.13 0.13 0.14 0.14 0.15 0.16 0.15 0.13 0.12 0.10 0.09 0.08 0.07 0.05 0.04
0.03 0.04 0.04 0.04 0.03 0.03 0.04 0.04 0.04 0.04 0.04 0.04 0.04 0.04 0.05 0.06 0.06 0.07 0.07 0.07 0.06 0.06 0.05 0.05 0.07 0.08 0.08 0.09 0.09 0.09 0.11 0.13 0.13 0.12 0.11 0.10 0.09 0.07 0.05 0.05 0.05 0.04 0.03
0.03 0.03 0.03 0.04 0.03 0.03 0.03 0.04 0.05 0.05 0.05 0.04 0.03 0.04 0.04 0.04 0.04 0.04 0.05 0.04 0.04 0.03 0.03 0.05 0.05 0.05 0.05 0.06 0.05 0.05 0.06 0.08 0.08 0.07 0.06 0.06 0.06 0.04 0.03 0.03 0.03 0.03 0.02
MSLP
1009.78 1009.81 1009.85 1009.88 1009.86 1009.76 1009.59 1009.35 1009.08 1008.81 1008.56 1008.36 1008.24 1008.17 1008.16 1008.19 1008.24 1008.30 1008.37 1008.46 1008.58 1008.73 1008.93 1009.16 1009.41 1009.67 1009.89 1010.06 1010.16 1010.16 1010.08 1009.94 1009.76 1009.57 1009.43 1009.36 1009.38 1009.51 1009.74 1010.05 1010.42 1010.82 1011.22
1009.69 1009.64 1009.62 1009.58 1009.50 1009.37 1009.19 1008.95 1008.68 1008.42 1008.18 1007.99 1007.86 1007.78 1007.74 1007.74 1007.75 1007.78 1007.83 1007.90 1008.00 1008.15 1008.35 1008.60 1008.89 1009.19 1009.49 1009.74 1009.94 1010.05 1010.09 1010.05 1009.97 1009.86 1009.77 1009.72 1009.74 1009.84 1010.02 1010.27 1010.59 1010.94 1011.30
1009.62 1009.51 1009.42 1009.32 1009.19 1009.01 1008.79 1008.54 1008.28 1008.02 1007.80 1007.62 1007.48 1007.40 1007.34 1007.31 1007.29 1007.28 1007.29 1007.31 1007.38 1007.50 1007.69 1007.93 1008.23 1008.57 1008.92 1009.26 1009.55 1009.78 1009.94 1010.03 1010.06 1010.05 1010.03 1010.02 1010.05 1010.13 1010.28 1010.49 1010.75 1011.06 1011.38
1009.55 1009.39 1009.24 1009.08 1008.89 1008.66 1008.41 1008.13 1007.86 1007.61 1007.39 1007.22 1007.08 1006.99 1006.92 1006.86 1006.80 1006.75 1006.71 1006.69 1006.71 1006.79 1006.94 1007.17 1007.47 1007.83 1008.23 1008.63 1009.01 1009.35 1009.63 1009.84 1009.98 1010.08 1010.13 1010.18 1010.23 1010.31 1010.44 1010.62 1010.85 1011.12 1011.44
1009.42 1009.24 1009.05 1008.83 1008.58 1008.30 1008.00 1007.70 1007.41 1007.15 1006.93 1006.75 1006.61 1006.51 1006.42 1006.33 1006.24 1006.14 1006.05 1005.99 1005.96 1006.00 1006.12 1006.33 1006.63 1007.00 1007.43 1007.89 1008.34 1008.77 1009.15 1009.47 1009.72 1009.90 1010.04 1010.14 1010.22 1010.32 1010.44 1010.61 1010.82 1011.09 1011.41
1009.23 1009.03 1008.80 1008.53 1008.23 1007.90 1007.55 1007.21 1006.89 1006.61 1006.37 1006.18 1006.03 1005.90 1005.79 1005.67 1005.55 1005.42 1005.29 1005.19 1005.14 1005.15 1005.25 1005.45 1005.75 1006.13 1006.58 1007.08 1007.59 1008.08 1008.54 1008.93 1009.26 1009.52 1009.72 1009.87 1009.99 1010.11 1010.25 1010.42 1010.64 1010.92 1011.26
1008.94 1008.73 1008.47 1008.16 1007.82 1007.43 1007.04 1006.65 1006.30 1005.98 1005.72 1005.50 1005.32 1005.16 1005.02 1004.87 1004.72 1004.57 1004.43 1004.32 1004.26 1004.27 1004.37 1004.58 1004.88 1005.28 1005.75 1006.27 1006.81 1007.34 1007.83 1008.27 1008.65 1008.96 1009.21 1009.40 1009.56 1009.71 1009.87 1010.06 1010.31 1010.62 1011.00
1008.57 1008.35 1008.07 1007.73 1007.33 1006.90 1006.46 1006.03 1005.63 1005.27 1004.96 1004.71 1004.49 1004.31 1004.14 1003.97 1003.81 1003.66 1003.52 1003.42 1003.38 1003.42 1003.55 1003.78 1004.11 1004.52 1005.00 1005.52 1006.07 1006.60 1007.11 1007.56 1007.96 1008.29 1008.56 1008.78 1008.97 1009.15 1009.35 1009.58 1009.86 1010.21 1010.64
1008.17 1007.93 1007.62 1007.24 1006.81 1006.33 1005.84 1005.36 1004.92 1004.52 1004.17 1003.88 1003.63 1003.42 1003.23 1003.06 1002.90 1002.76 1002.66 1002.60 1002.61 1002.70 1002.88 1003.14 1003.49 1003.92 1004.40 1004.92 1005.44 1005.95 1006.43 1006.87 1007.26 1007.58 1007.86 1008.10 1008.32 1008.54 1008.77 1009.03 1009.36 1009.75 1010.23
1007.77 1007.50 1007.17 1006.75 1006.27 1005.75 1005.22 1004.70 1004.22 1003.78 1003.40 1003.08 1002.81 1002.59 1002.39 1002.23 1002.10 1002.00 1001.95 1001.95 1002.02 1002.17 1002.40 1002.71 1003.09 1003.52 1003.99 1004.48 1004.97 1005.43 1005.87 1006.26 1006.62 1006.93 1007.20 1007.45 1007.69 1007.93 1008.20 1008.50 1008.86 1009.29 1009.80
1007.41 1007.12 1006.74 1006.28 1005.77 1005.21 1004.64 1004.09 1003.58 1003.12 1002.73 1002.40 1002.12 1001.90 1001.73 1001.59 1001.50 1001.46 1001.47 1001.54 1001.68 1001.89 1002.17 1002.51 1002.90 1003.32 1003.77 1004.21 1004.64 1005.05 1005.42 1005.76 1006.08 1006.36 1006.62 1006.88 1007.13 1007.40 1007.70 1008.03 1008.42 1008.87 1009.39
1007.12 1006.78 1006.36 1005.86 1005.31 1004.72 1004.13 1003.56 1003.04 1002.58 1002.19 1001.87 1001.62 1001.42 1001.28 1001.19 1001.15 1001.17 1001.24 1001.37 1001.57 1001.82 1002.13 1002.49 1002.87 1003.27 1003.67 1004.05 1004.42 1004.75 1005.06 1005.35 1005.62 1005.87 1006.13 1006.39 1006.66 1006.95 1007.28 1007.64 1008.05 1008.50 1009.02
1006.88 1006.50 1006.02 1005.48 1004.89 1004.28 1003.68 1003.11 1002.60 1002.16 1001.80 1001.52 1001.30 1001.15 1001.06 1001.03 1001.04 1001.11 1001.23 1001.40 1001.63 1001.91 1002.22 1002.56 1002.91 1003.27 1003.60 1003.92 1004.21 1004.48 1004.73 1004.96 1005.19 1005.43 1005.68 1005.95 1006.25 1006.57 1006.92 1007.30 1007.73 1008.19 1008.70
1006.67 1006.23 1005.70 1005.12 1004.50 1003.87 1003.27 1002.72 1002.24 1001.84 1001.53 1001.30 1001.14 1001.05 1001.01 1001.03 1001.09 1001.19 1001.34 1001.53 1001.76 1002.03 1002.31 1002.61 1002.91 1003.19 1003.46 1003.71 1003.93 1004.13 1004.33 1004.53 1004.74 1004.97 1005.23 1005.52 1005.85 1006.20 1006.59 1007.00 1007.44 1007.90 1008.40
1006.43 1005.93 1005.36 1004.74 1004.10 1003.47 1002.89 1002.37 1001.93 1001.58 1001.33 1001.16 1001.06 1001.02 1001.04 1001.09 1001.18 1001.30 1001.45 1001.63 1001.83 1002.05 1002.28 1002.51 1002.74 1002.95 1003.15 1003.32 1003.49 1003.65 1003.81 1003.99 1004.20 1004.44 1004.73 1005.05 1005.42 1005.81 1006.24 1006.68 1007.14 1007.62 1008.11
1006.14 1005.59 1004.98 1004.33 1003.68 1003.06 1002.50 1002.02 1001.63 1001.34 1001.15 1001.03 1000.99 1001.00 1001.05 1001.12 1001.21 1001.32 1001.44 1001.57 1001.72 1001.87 1002.03 1002.18 1002.34 1002.48 1002.61 1002.74 1002.86 1003.00 1003.15 1003.33 1003.56 1003.83 1004.15 1004.52 1004.93 1005.37 1005.84 1006.33 1006.82 1007.32 1007.83
1005.77 1005.19 1004.55 1003.89 1003.24 1002.64 1002.11 1001.67 1001.34 1001.10 1000.96 1000.89 1000.88 1000.92 1000.97 1001.04 1001.11 1001.18 1001.25 1001.31 1001.39 1001.46 1001.54 1001.63 1001.71 1001.80 1001.89 1001.99 1002.10 1002.23 1002.39 1002.60 1002.85 1003.16 1003.53 1003.94 1004.40 1004.90 1005.41 1005.94 1006.48 1007.01 1007.54
1005.36 1004.75 1004.10 1003.45 1002.81 1002.24 1001.75 1001.35 1001.06 1000.87 1000.76 1000.72 1000.73 1000.76 1000.80 1000.83 1000.85 1000.86 1000.86 1000.86 1000.86 1000.86 1000.88 1000.91 1000.95 1001.01 1001.08 1001.17 1001.29 1001.44 1001.64 1001.87 1002.17 1002.51 1002.92 1003.38 1003.88 1004.42 1004.98 1005.55 1006.13 1006.70 1007.26
1004.93 1004.32 1003.67 1003.03 1002.43 1001.89 1001.44 1001.09 1000.83 1000.67 1000.58 1000.54 1000.54 1000.55 1000.54 1000.53 1000.49 1000.43 1000.36 1000.29 1000.22 1000.17 1000.14 1000.14 1000.17 1000.23 1000.31 1000.43 1000.58 1000.77 1000.99 1001.27 1001.59 1001.97 1002.41 1002.90 1003.43 1004.00 1004.59 1005.20 1005.80 1006.41 1006.99
1004.55 1003.94 1003.31 1002.70 1002.13 1001.63 1001.22 1000.91 1000.68 1000.53 1000.45 1000.40 1000.37 1000.33 1000.27 1000.19 1000.09 999.97 999.83 999.71 999.60 999.52 999.48 999.48 999.52 999.60 999.73 999.88 1000.08 1000.30 1000.57 1000.87 1001.22 1001.62 1002.07 1002.56 1003.10 1003.68 1004.28 1004.90 1005.52 1006.14 1006.74
1004.24 1003.64 1003.03 1002.46 1001.93 1001.48 1001.10 1000.82 1000.61 1000.47 1000.38 1000.31 1000.24 1000.15 1000.04 999.90 999.74 999.56 999.39 999.23 999.10 999.02 999.00 999.03 999.11 999.24 999.41 999.63 999.87 1000.13 1000.42 1000.74 1001.10 1001.49 1001.92 1002.40 1002.92 1003.48 1004.07 1004.68 1005.30 1005.91 1006.51
1004.02 1003.43 1002.86 1002.31 1001.82 1001.41 1001.07 1000.81 1000.62 1000.48 1000.37 1000.28 1000.17 1000.04 999.89 999.70 999.50 999.29 999.10 998.93 998.82 998.76 998.77 998.85 998.99 999.18 999.41 999.68 999.96 1000.25 1000.56 1000.88 1001.22 1001.58 1001.98 1002.42 1002.89 1003.41 1003.96 1004.53 1005.12 1005.70 1006.27
1003.89 1003.31 1002.75 1002.23 1001.77 1001.38 1001.07 1000.83 1000.65 1000.52 1000.40 1000.28 1000.15 1000.00 999.81 999.61 999.39 999.17 998.99 998.84 998.76 998.75 998.81 998.95 999.15 999.40 999.69 999.99 1000.31 1000.61 1000.92 1001.22 1001.52 1001.84 1002.18 1002.55 1002.97 1003.42 1003.91 1004.43 1004.97 1005.51 1006.04
1003.80 1003.23 1002.68 1002.17 1001.73 1001.37 1001.07 1000.84 1000.67 1000.54 1000.41 1000.29 1000.15 999.99 999.80 999.59 999.38 999.19 999.03 998.92 998.89 998.93 999.06 999.25 999.51 999.81 1000.14 1000.47 1000.80 1001.11 1001.39 1001.66 1001.91 1002.17 1002.45 1002.75 1003.09 1003.47 1003.90 1004.35 1004.83 1005.31 1005.79
1003.74 1003.16 1002.61 1002.11 1001.67 1001.31 1001.03 1000.81 1000.64 1000.51 1000.39 1000.28 1000.14 999.99 999.81 999.63 999.45 999.29 999.17 999.11 999.13 999.23 999.41 999.65 999.96 1000.30 1000.65 1001.00 1001.32 1001.62 1001.88 1002.10 1002.31 1002.51 1002.71 1002.94 1003.21 1003.52 1003.87 1004.26 1004.68 1005.11 1005.53
1003.68 1003.09 1002.54 1002.03 1001.60 1001.24 1000.95 1000.74 1000.57 1000.45 1000.34 1000.23 1000.12 999.99 999.84 999.69 999.55 999.43 999.36 999.35 999.42 999.57 999.78 1000.07 1000.40 1000.76 1001.13 1001.48 1001.79 1002.06 1002.29 1002.48 1002.64 1002.78 1002.93 1003.10 1003.30 1003.54 1003.83 1004.16 1004.52 1004.90 1005.29
Thickness
5653 5649 5645 5642 5639 5636 5633 5630 5627 5625 5623 5620 5618 5617 5618 5618 5619 5619 5619 5621 5623 5625 5629 5632 5637 5643 5647 5653 5658 5664 5670 5674 5675 5683 5692 5698 5701 5701 5702 5704 5706 5708 5708
5645 5641 5637 5633 5629 5625 5622 5619 5616 5613 5610 5608 5606 5604 5604 5605 5606 5606 5607 5610 5612 5614 5617 5621 5626 5631 5636 5641 5647 5653 5659 5665 5668 5671 5678 5684 5689 5691 5693 5696 5699 5701 5701
5637 5632 5627 5623 5618 5614 5610 5607 5603 5599 5596 5594 5592 5590 5590 5590 5591 5593 5595 5598 5601 5604 5607 5611 5615 5619 5624 5630 5635 5641 5647 5654 5659 5662 5667 5674 5679 5682 5684 5687 5690 5692 5693
5628 5623 5618 5613 5608 5604 5599 5593 5589 5585 5582 5579 5577 5576 5576 5576 5577 5580 5582 5585 5588 5593 5597 5600 5605 5609 5613 5618 5623 5629 5635 5641 5647 5652 5658 5663 5668 5673 5675 5677 5678 5682 5685
5620 5615 5610 5605 5599 5593 5587 5582 5576 5571 5568 5565 5563 5562 5562 5562 5564 5566 5568 5572 5575 5580 5584 5589 5594 5599 5604 5608 5613 5618 5624 5630 5636 5642 5648 5653 5658 5662 5666 5670 5671 5673 5676
5612 5606 5601 5596 5589 5583 5577 5571 5565 5560 5555 5552 5549 5548 5547 5549 5551 5551 5553 5556 5562 5567 5571 5577 5582 5588 5593 5598 5603 5608 5614 5619 5625 5631 5638 5645 5651 5655 5660 5664 5663 5665 5666
5605 5599 5593 5587 5581 5574 5567 5561 5554 5548 5544 5540 5537 5536 5536 5536 5536 5537 5540 5543 5548 5554 5560 5565 5570 5580 5584 5589 5593 5598 5603 5609 5616 5623 5630 5636 5642 5649 5652 5656 5658 5661 5664
5598 5591 5585 5578 5572 5565 5558 5551 5544 5539 5534 5531 5528 5527 5526 5528 5528 5529 5530 5534 5539 5546 5552 5556 5560 5567 5575 5580 5584 5589 5594 5600 5607 5615 5623 5629 5635 5641 5646 5650 5652 5654 5657
5591 5584 5578 5572 5565 5558 5551 5545 5539 5533 5528 5525 5523 5521 5520 5521 5521 5521 5523 5527 5532 5538 5544 5550 5554 5559 5565 5571 5576 5582 5586 5592 5598 5606 5613 5619 5625 5631 5637 5640 5643 5645 5646
5585 5579 5573 5566 5559 5553 5548 5541 5535 5529 5525 5522 5520 5518 5518 5517 5517 5517 5517 5522 5527 5532 5538 5544 5549 5553 5557 5562 5568 5573 5577 5583 5590 5597 5602 5608 5615 5622 5628 5633 5638 5642 5643
5581 5575 5569 5562 5556 5552 5547 5540 5534 5528 5524 5520 5519 5518 5517 5516 5516 5514 5514 5517 5522 5526 5532 5538 5544 5547 5552 5556 5563 5567 5571 5576 5582 5588 5594 5600 5606 5614 5620 5627 5633 5639 5641
5577 5572 5566 5561 5555 5552 5545 5539 5534 5528 5524 5521 5519 5519 5517 5516 5515 5514 5512 5512 5516 5521 5527 5533 5539 5543 5546 5551 5556 5562 5565 5568 5575 5581 5587 5593 5599 5607 5614 5621 5627 5632 5638
5574 5569 5565 5560 5555 5550 5544 5538 5533 5528 5524 5520 5518 5517 5517 5516 5515 5513 5511 5510 5511 5515 5522 5527 5533 5537 5540 5545 5550 5555 5559 5564 5570 5576 5582 5589 5595 5602 5608 5612 5617 5623 5628
5572 5568 5564 5560 5555 5551 5545 5539 5533 5528 5523 5519 5516 5515 5514 5514 5514 5513 5512 5509 5509 5512 5519 5524 5528 5532 5538 5544 5548 5550 5555 5562 5567 5572 5578 5584 5589 5594 5599 5604 5608 5612 5616
5571 5567 5563 5559 5556 5551 5546 5540 5534 5528 5519 5513 5513 5511 5511 5511 5508 5508 5511 5512 5514 5517 5520 5523 5527 5532 5537 5543 5549 5552 5556 5560 5564 5569 5574 5578 5582 5587 5591 5596 5601 5605 5610
5570 5567 5562 5559 5555 5551 5547 5542 5532 5525 5518 5511 5506 5504 5506 5503 5504 5506 5508 5510 5513 5516 5521 5526 5530 5535 5540 5545 5550 5555 5558 5561 5565 5568 5571 5574 5578 5581 5586 5590 5594 5599 5605
5569 5566 5562 5559 5556 5552 5548 5544 5539 5531 5521 5514 5510 5507 5505 5503 5504 5505 5507 5509 5513 5516 5524 5529 5533 5537 5542 5547 5552 5556 5559 5562 5564 5566 5568 5571 5574 5577 5581 5585 5589 5595 5600
5570 5568 5564 5560 5557 5553 5550 5547 5543 5539 5533 5528 5517 5511 5508 5507 5507 5507 5509 5511 5518 5521 5529 5533 5537 5540 5544 5549 5552 5556 5559 5561 5563 5564 5565 5567 5570 5573 5577 5581 5586 5591 5595
5571 5569 5566 5562 5559 5556 5553 5550 5546 5542 5539 5535 5530 5520 5514 5511 5510 5510 5511 5519 5527 5530 5533 5537 5540 5543 5547 5549 5552 5555 5557 5559 5560 5561 5562 5564 5567 5571 5575 5579 5583 5586 5591
5573 5570 5567 5565 5562 5559 5556 5552 5548 5545 5542 5539 5536 5532 5527 5524 5524 5522 5521 5526 5530 5533 5536 5539 5541 5544 5546 5548 5550 5553 5554 5555 5556 5558 5560 5563 5566 5570 5574 5578 5581 5585 5588
5574 5573 5570 5568 5565 5562 5558 5554 5550 5547 5544 5542 5540 5536 5528 5532 5533 5532 5532 5532 5534 5536 5538 5540 5541 5542 5544 5546 5548 5550 5551 5553 5555 5557 5559 5561 5565 5568 5572 5576 5579 5583 5587
5575 5574 5573 5570 5567 5564 5560 5557 5554 5550 5547 5545 5543 5540 5534 5536 5537 5536 5536 5536 5536 5537 5538 5539 5540 5542 5543 5545 5547 5548 5550 5552 5554 5556 5559 5562 5565 5568 5571 5574 5577 5582 5587
5576 5576 5575 5573 5570 5566 5563 5561 5557 5554 5551 5548 5546 5545 5543 5542 5541 5540 5539 5539 5539 5539 5540 5540 5541 5542 5544 5545 5547 5549 5552 5554 5556 5559 5562 5565 5567 5569 5572 5575 5579 5583 5586
5577 5577 5576 5575 5572 5569 5566 5563 5561 5559 5555 5552 5551 5549 5548 5546 5546 5544 5543 5542 5542 5542 5542 5542 5543 5544 5545 5547 5549 5551 5554 5556 5559 5562 5565 5568 5570 5572 5575 5578 5581 5584 5587
5578 5577 5576 5575 5572 5570 5569 5567 5565 5562 5560 5557 5557 5555 5554 5553 5551 5550 5548 5547 5547 5546 5546 5546 5547 5547 5548 5550 5553 5554 5556 5559 5562 5566 5568 5570 5572 5574 5578 5581 5583 5585 5588
5577 5577 5576 5575 5573 5572 5571 5569 5568 5566 5565 5564 5563 5562 5561 5560 5558 5557 5555 5554 5553 5552 5552 5552 5552 5553 5554 5555 5556 5557 5558 5561 5563 5567 5570 5573 5576 5579 5582 5584 5586 5588 5590